FAGL weather

Groblersdal Kob Airport
Groblersdal, Mpumalanga, South Africa

Public forecast

Using degrees Celsius for public forecast. Weather courtesy of forecast.io.

Closest aviation weather report (METAR) to Groblersdal Kob Airport

Closest report is Wonderboom Airport, 69.8 nm (129.3 km) WSW. Retrieved 2020/05/30 19:00 UTC (18 minutes ago):

FAWB 301900Z AUTO 07002KT //// // ////// 11/04 Q1027

Closest aviation forecast (TAF) to Groblersdal Kob Airport

Forecast is more than 12 hours old.

Closest forecast is Wonderboom Airport, 69.8 nm (129.3 km) WSW. Retrieved 2019/01/10 10:00 UTC (1 year ago):

TAF FAWB 101000Z 1010/1018 30007KT CAVOK BECMG 1014/1016 SCT035 PROB30 TEMPO 1016/1018 -TSRA FEW040CB TX31/1013Z TN26/1018Z